Date,TemperatureHighF,TemperatureAvgF,TemperatureLowF,DewpointHighF,DewpointAvgF,DewpointLowF,HumidityHigh,HumidityAvg,HumidityLow,PressureMaxIn,PressureMinIn,WindSpeedMaxMPH,WindSpeedAvgMPH,GustSpeedMaxMPH,PrecipitationSumIn
2013-11-1,42.0,39.4,35.0,39.0,34.4,30.0,88,83,77,0.00,40.00,6,4,15,0.00
2013-11-2,35.0,33.4,25.0,31.0,28.7,21.0,87,83,77,0.00,40.00,2,1,3,0.00
2013-11-3,25.0,23.4,22.0,22.0,20.0,18.0,87,87,87,0.00,40.00,1,0,2,0.00
2013-11-4,43.0,41.5,35.0,39.0,34.0,26.0,87,75,59,0.00,40.00,10,6,22,0.04
2013-11-5,37.0,33.0,29.0,29.0,26.2,20.0,88,77,49,0.00,40.00,6,2,10,1.64
2013-11-6,33.0,30.9,24.0,29.0,25.2,14.0,88,80,55,0.00,40.00,7,3,14,2.62
2013-11-7,32.0,24.3,20.0,21.0,16.9,12.0,86,75,53,0.00,40.00,9,1,14,0.00
2013-11-8,36.0,25.5,15.0,29.0,19.3,12.0,87,78,52,0.00,40.00,8,3,16,0.10
2013-11-9,37.0,34.5,32.0,32.0,26.2,-99.9,88,75,62,0.00,40.00,16,-30,29,0.00
2013-11-10,36.0,34.0,32.0,29.0,23.7,20.0,86,65,52,0.00,40.00,11,7,23,0.56
2013-11-11,32.0,23.1,19.0,29.0,11.9,5.0,86,63,49,0.00,40.00,8,5,19,0.61
2013-11-12,18.0,14.9,12.0,4.0,3.0,2.0,65,59,48,0.00,40.00,8,6,16,0.14
2013-11-13,41.0,30.4,25.0,26.0,13.3,7.0,54,49,46,0.00,40.00,7,6,17,0.00
2013-11-14,44.0,36.6,32.0,30.0,27.5,26.0,86,71,50,0.00,40.00,6,2,13,0.00
2013-11-15,45.0,35.3,32.0,33.0,29.7,28.0,88,81,53,0.00,40.00,6,2,10,0.00
2013-11-16,45.0,41.0,36.0,38.0,31.6,-99.9,89,73,60,0.00,40.00,9,4,16,0.30
2013-11-17,45.0,40.3,31.0,42.0,34.8,22.0,89,81,63,0.00,40.00,17,6,34,0.00
2013-11-18,31.0,29.4,26.0,22.0,18.8,11.0,70,64,54,0.00,40.00,12,10,27,0.00
2013-11-19,29.0,21.9,15.0,17.0,13.0,11.0,84,69,50,0.00,40.00,6,2,12,0.00
2013-11-20,36.0,34.7,34.0,29.0,26.3,23.0,81,71,59,0.00,40.00,9,4,19,0.00
2013-11-21,35.0,32.4,26.0,31.0,25.8,9.0,88,77,54,0.00,40.00,6,3,17,0.14
2013-11-22,23.0,19.5,13.0,11.0,8.3,-1.0,72,61,51,0.00,40.00,9,3,19,0.07
2013-11-23,15.0,9.2,0.0,1.0,-5.3,-99.9,77,54,42,0.00,40.00,7,4,18,0.07
2013-11-24,18.0,4.6,-1.0,0.0,-3.7,-6.0,79,70,35,0.00,40.00,9,2,19,0.00
2013-11-25,35.0,31.9,27.0,23.0,17.3,11.0,72,55,48,0.00,40.00,13,7,26,0.01
2013-11-26,27.0,15.9,13.0,12.0,4.6,-2.0,79,62,35,0.00,40.00,13,6,25,1.98
2013-11-27,24.0,16.5,10.0,15.0,11.1,6.0,87,80,50,0.00,40.00,3,2,7,2.16
2013-11-28,24.0,18.4,14.0,15.0,12.4,9.0,87,78,55,0.00,40.00,7,2,14,0.18
2013-11-29,26.0,19.9,2.0,12.0,8.4,-3.0,86,62,50,0.00,40.00,7,4,17,0.00
2013-11-30,32.0,27.0,22.0,20.0,14.7,-99.9,78,63,53,0.00,40.00,6,2,12,0.00